Weather in Priupskiy

Russia / Tula Oblast     53°54′33″N   37°44′09″E
temp.,
°C
wind,
m/s
gust,
m/s
humid.,
%
clouds,
%
prec.,
mm/h
press.,
hPa
HPBL,
m
27 january, thu
thu2700:00−14nw1199100 0.1 101811
03:00−15wnw1110089 0.1 10189
06:00−16w22100100 0.1 101815
09:00−18sw2210097 0.1 101912
12:00−11ssw349578 0.0 1018163
15:00−9ssw3694100 0.1 1017313
18:00−12s389698 0.0 1016139
21:00−14s4119642 0.0 1015177
28 january, fri
fri2800:00−15s412969 0.0 1014194
03:00−14s5139464 0.0 1012221
06:00−12s6139484 0.1 1010286
09:00−11sse61494100 0.1 1009309
12:00−8sse71494100 0.4 1007378
15:00−6sse71293100 0.9 1005436
18:00−6sse61395100 0.7 1005427
21:00−5s51295100 1.2 1004360
29 january, sat
sat2900:00−4s4996100 0.1 1004235
03:00−4s499697 0.3 1004211
06:00−4s4897100 0.1 1003184
09:00−3ssw379799 0.9 1004270
12:00−2sw359666 0.2 1004251
15:00−1sw3494100 0.2 1004358
18:00−2w3492100 0.1 1005162
21:00−4wsw369892 0.3 1005120
30 january, sun
sun3000:00−8w249996 0.1 100658
03:00−9w489693 0.2 1006227
06:00−11ssw4997100 0.1 1004154
09:00−8s61492100 0.1 1000435
12:00−5s91994100 0.5 996831
15:00−4ssw91694100 2.5 992965
18:00−4s81694100 0.9 990718
21:00−3ssw7149398 1.6 989487
31 january, mon
mon3100:00−3s51194100 0.1 988481
03:00−2ssw6129492 0.6 987643
06:00−3sse61395100 0.1 986506
09:00−2sse71496100 1.1 985723
12:00−1sse51097100 1.2 984611
15:000wsw479789 2.2 984508
18:00−2w5109791 0.5 987344
21:00−4w6129596 0.7 991460